Year,Month,Day,Hour,Minute,Value (Times are PST for windgust in km/hr)
2016,07,08,10,10,25.70
2016,07,08,10,11,20.90
2016,07,08,10,12,20.90
2016,07,08,10,13,20.90
2016,07,08,10,14,25.70
2016,07,08,10,15,20.90
2016,07,08,10,16,24.20
2016,07,08,10,17,24.20
2016,07,08,10,18,25.70
2016,07,08,10,19,24.20
2016,07,08,10,20,32.20
2016,07,08,10,21,32.20
2016,07,08,10,22,30.60
2016,07,08,10,23,27.40
2016,07,08,10,24,25.70
2016,07,08,10,25,35.40
2016,07,08,10,26,29.00
2016,07,08,10,27,40.20
2016,07,08,10,28,37.00
2016,07,08,10,29,40.20
2016,07,08,10,30,29.00
2016,07,08,10,31,27.40
2016,07,08,10,32,30.60
2016,07,08,10,33,32.20
2016,07,08,10,34,25.70
2016,07,08,10,35,29.00
2016,07,08,10,36,30.60
2016,07,08,10,37,29.00
2016,07,08,10,38,32.20
2016,07,08,10,39,40.20
2016,07,08,10,40,37.00
2016,07,08,10,41,29.00
2016,07,08,10,42,30.60
2016,07,08,10,43,24.20
2016,07,08,10,44,25.70
2016,07,08,10,45,32.20
2016,07,08,10,46,27.40
2016,07,08,10,47,32.20
2016,07,08,10,48,25.70
2016,07,08,10,49,24.20
2016,07,08,10,50,25.70
2016,07,08,10,51,25.70
2016,07,08,10,52,35.40
2016,07,08,10,53,37.00
2016,07,08,10,54,30.60
2016,07,08,10,55,19.30
2016,07,08,10,56,25.70
2016,07,08,10,57,20.90
2016,07,08,10,58,20.90
2016,07,08,10,59,29.00
2016,07,08,11,00,29.00
2016,07,08,11,01,22.50
2016,07,08,11,02,25.70
2016,07,08,11,03,22.50
2016,07,08,11,04,20.90
2016,07,08,11,05,25.70
2016,07,08,11,06,29.00
2016,07,08,11,07,29.00
2016,07,08,11,08,22.50
2016,07,08,11,09,30.60
2016,07,08,11,10,35.40
2016,07,08,11,11,30.60
2016,07,08,11,12,27.40
2016,07,08,11,13,24.20
2016,07,08,11,14,25.70
2016,07,08,11,15,25.70
2016,07,08,11,16,25.70
2016,07,08,11,17,29.00
2016,07,08,11,18,24.20
2016,07,08,11,19,35.40
2016,07,08,11,20,29.00
2016,07,08,11,21,25.70
2016,07,08,11,22,24.20
2016,07,08,11,23,17.70
2016,07,08,11,24,24.20
2016,07,08,11,25,24.20
2016,07,08,11,26,25.70
2016,07,08,11,27,17.70
2016,07,08,11,28,17.70
2016,07,08,11,29,37.00
2016,07,08,11,30,29.00
2016,07,08,11,31,17.70
2016,07,08,11,32,16.10
2016,07,08,11,33,25.70
2016,07,08,11,34,24.20
2016,07,08,11,35,27.40
2016,07,08,11,36,22.50
2016,07,08,11,37,20.90
2016,07,08,11,38,25.70
2016,07,08,11,39,20.90
2016,07,08,11,40,25.70
2016,07,08,11,41,30.60
2016,07,08,11,42,20.90
2016,07,08,11,43,22.50
2016,07,08,11,44,22.50
2016,07,08,11,45,29.00
2016,07,08,11,46,29.00
2016,07,08,11,47,30.60
2016,07,08,11,48,24.20
2016,07,08,11,49,22.50
2016,07,08,11,50,19.30
2016,07,08,11,51,27.40
2016,07,08,11,52,32.20
2016,07,08,11,53,25.70
2016,07,08,11,54,37.00
2016,07,08,11,55,37.00
2016,07,08,11,56,40.20
2016,07,08,11,57,27.40
2016,07,08,11,58,24.20
2016,07,08,11,59,19.30
2016,07,08,12,00,20.90
2016,07,08,12,01,29.00
2016,07,08,12,02,25.70
2016,07,08,12,03,17.70
2016,07,08,12,04,17.70
2016,07,08,12,05,24.20
2016,07,08,12,06,16.10
2016,07,08,12,07,22.50
2016,07,08,12,08,32.20
2016,07,08,12,09,20.90
2016,07,08,12,10,35.40
2016,07,08,12,11,29.00
2016,07,08,12,12,35.40
2016,07,08,12,13,32.20
2016,07,08,12,14,22.50
2016,07,08,12,15,20.90
2016,07,08,12,16,35.40
2016,07,08,12,17,27.40
2016,07,08,12,18,19.30
2016,07,08,12,19,17.70
2016,07,08,12,20,19.30
2016,07,08,12,21,20.90
2016,07,08,12,22,19.30
2016,07,08,12,23,17.70
2016,07,08,12,24,27.40
2016,07,08,12,25,33.80
2016,07,08,12,26,29.00
2016,07,08,12,27,24.20
2016,07,08,12,28,20.90
2016,07,08,12,29,12.90
2016,07,08,12,30,24.20
2016,07,08,12,31,24.20
2016,07,08,12,32,22.50
2016,07,08,12,33,27.40
2016,07,08,12,34,22.50
2016,07,08,12,35,16.10
2016,07,08,12,36,9.60
2016,07,08,12,37,20.90
2016,07,08,12,38,30.60
2016,07,08,12,39,33.80
2016,07,08,12,40,25.70
2016,07,08,12,41,20.90
2016,07,08,12,42,25.70
2016,07,08,12,43,20.90
2016,07,08,12,44,20.90
2016,07,08,12,45,19.30
2016,07,08,12,46,17.70
2016,07,08,12,47,32.20
2016,07,08,12,48,25.70
2016,07,08,12,49,29.00
2016,07,08,12,50,27.40
2016,07,08,12,51,17.70
2016,07,08,12,52,14.50
2016,07,08,12,53,24.20
2016,07,08,12,54,30.60
2016,07,08,12,55,27.40
2016,07,08,12,56,29.00
2016,07,08,12,57,29.00
2016,07,08,12,58,24.20
2016,07,08,12,59,24.20
2016,07,08,13,00,35.40
2016,07,08,13,01,25.70
2016,07,08,13,02,24.20
2016,07,08,13,03,24.20
2016,07,08,13,04,19.30
2016,07,08,13,05,17.70
2016,07,08,13,06,16.10
2016,07,08,13,07,14.50
2016,07,08,13,08,16.10
2016,07,08,13,09,22.50
2016,07,08,13,10,16.10
2016,07,08,13,11,16.10
2016,07,08,13,12,30.60
2016,07,08,13,13,20.90
2016,07,08,13,14,12.90
2016,07,08,13,15,20.90
2016,07,08,13,16,22.50
2016,07,08,13,17,25.70
2016,07,08,13,18,24.20
2016,07,08,13,19,29.00
2016,07,08,13,20,24.20
2016,07,08,13,21,22.50
2016,07,08,13,22,25.70
2016,07,08,13,23,20.90
2016,07,08,13,24,25.70
2016,07,08,13,25,25.70
2016,07,08,13,26,25.70
2016,07,08,13,27,24.20
2016,07,08,13,28,24.20
2016,07,08,13,29,35.40
2016,07,08,13,30,30.60
2016,07,08,13,31,27.40
2016,07,08,13,32,27.40
2016,07,08,13,33,41.80
2016,07,08,13,34,29.00
2016,07,08,13,35,29.00
2016,07,08,13,36,30.60
2016,07,08,13,37,25.70
2016,07,08,13,38,27.40
2016,07,08,13,39,37.00
2016,07,08,13,40,32.20
2016,07,08,13,41,46.70
2016,07,08,13,42,30.60
2016,07,08,13,43,20.90
2016,07,08,13,44,37.00
2016,07,08,13,45,40.20
2016,07,08,13,46,40.20
2016,07,08,13,47,32.20
2016,07,08,13,48,37.00
2016,07,08,13,49,33.80
2016,07,08,13,50,33.80
2016,07,08,13,51,25.70
2016,07,08,13,52,27.40
2016,07,08,13,53,35.40
2016,07,08,13,54,32.20
2016,07,08,13,55,37.00
2016,07,08,13,56,33.80
2016,07,08,13,57,29.00
2016,07,08,13,58,27.40
2016,07,08,13,59,29.00
2016,07,08,14,00,45.10
2016,07,08,14,01,43.50
2016,07,08,14,02,41.80
2016,07,08,14,03,30.60
2016,07,08,14,04,37.00
2016,07,08,14,05,25.70
2016,07,08,14,06,38.60
2016,07,08,14,07,30.60
2016,07,08,14,08,30.60
2016,07,08,14,09,35.40
2016,07,08,14,10,33.80
2016,07,08,14,11,38.60
2016,07,08,14,12,33.80
2016,07,08,14,13,30.60
2016,07,08,14,14,29.00
2016,07,08,14,15,45.10
2016,07,08,14,16,41.80
2016,07,08,14,17,29.00
2016,07,08,14,18,25.70
2016,07,08,14,19,20.90
2016,07,08,14,20,27.40
2016,07,08,14,21,27.40
2016,07,08,14,22,20.90
2016,07,08,14,23,38.60
2016,07,08,14,24,35.40
2016,07,08,14,25,37.00
2016,07,08,14,26,37.00
2016,07,08,14,27,33.80
2016,07,08,14,28,22.50
2016,07,08,14,29,30.60
2016,07,08,14,30,27.40
2016,07,08,14,31,27.40
2016,07,08,14,32,19.30
2016,07,08,14,33,27.40
2016,07,08,14,34,12.90
2016,07,08,14,35,33.80
2016,07,08,14,36,27.40
2016,07,08,14,37,29.00
2016,07,08,14,38,19.30
2016,07,08,14,39,14.50
2016,07,08,14,40,29.00
2016,07,08,14,41,25.70
2016,07,08,14,42,24.20
2016,07,08,14,43,38.60
2016,07,08,14,44,33.80
2016,07,08,14,45,25.70
2016,07,08,14,46,30.60
2016,07,08,14,47,20.90
2016,07,08,14,48,20.90
2016,07,08,14,49,22.50
2016,07,08,14,50,14.50
2016,07,08,14,51,8.10
2016,07,08,14,52,4.80
2016,07,08,14,53,19.30
2016,07,08,14,54,22.50
2016,07,08,14,55,16.10
2016,07,08,14,56,14.50
2016,07,08,14,57,14.50
2016,07,08,14,58,35.40
2016,07,08,14,59,30.60
2016,07,08,15,00,16.10
2016,07,08,15,01,22.50
2016,07,08,15,02,29.00
2016,07,08,15,03,22.50
2016,07,08,15,04,22.50
2016,07,08,15,05,19.30
2016,07,08,15,06,22.50
2016,07,08,15,07,17.70
2016,07,08,15,08,14.50
2016,07,08,15,09,22.50
2016,07,08,15,10,14.50
2016,07,08,15,11,19.30
2016,07,08,15,12,30.60
2016,07,08,15,13,22.50
2016,07,08,15,14,22.50
2016,07,08,15,15,17.70
2016,07,08,15,16,30.60
2016,07,08,15,17,25.70
2016,07,08,15,18,33.80
2016,07,08,15,19,24.20
2016,07,08,15,20,33.80
2016,07,08,15,21,40.20
2016,07,08,15,22,29.00
2016,07,08,15,23,24.20
2016,07,08,15,24,24.20
2016,07,08,15,25,22.50
2016,07,08,15,26,22.50
2016,07,08,15,27,22.50
2016,07,08,15,28,25.70
2016,07,08,15,29,24.20
2016,07,08,15,30,25.70
2016,07,08,15,31,30.60
2016,07,08,15,32,25.70
2016,07,08,15,33,19.30
2016,07,08,15,34,24.20
2016,07,08,15,35,24.20
2016,07,08,15,36,17.70
2016,07,08,15,37,12.90
2016,07,08,15,38,8.10
2016,07,08,15,39,24.20
2016,07,08,15,40,19.30
2016,07,08,15,41,17.70
2016,07,08,15,42,17.70
2016,07,08,15,43,11.30
2016,07,08,15,44,17.70
2016,07,08,15,45,9.60
2016,07,08,15,46,8.10
2016,07,08,15,47,11.30
2016,07,08,15,48,8.10
2016,07,08,15,49,6.40
2016,07,08,15,50,11.30
2016,07,08,15,51,9.60
2016,07,08,15,52,6.40
2016,07,08,15,53,4.80
2016,07,08,15,54,3.20
2016,07,08,15,55,3.20
2016,07,08,15,56,8.10
2016,07,08,15,57,12.90
2016,07,08,15,58,9.60
2016,07,08,15,59,6.40
2016,07,08,16,00,8.10
2016,07,08,16,01,8.10
2016,07,08,16,02,9.60
2016,07,08,16,03,17.70
2016,07,08,16,04,16.10
2016,07,08,16,05,12.90
2016,07,08,16,06,11.30
2016,07,08,16,07,6.40
2016,07,08,16,08,9.60
2016,07,08,16,09,11.30
2016,07,08,16,10,14.50
2016,07,08,16,11,16.10
2016,07,08,16,12,17.70
2016,07,08,16,13,25.70
2016,07,08,16,14,25.70
2016,07,08,16,15,30.60
2016,07,08,16,16,24.20
2016,07,08,16,17,24.20
2016,07,08,16,18,14.50
2016,07,08,16,19,8.10
2016,07,08,16,20,16.10
2016,07,08,16,21,17.70
2016,07,08,16,22,17.70
2016,07,08,16,23,29.00
2016,07,08,16,24,25.70
2016,07,08,16,25,29.00
2016,07,08,16,26,25.70
2016,07,08,16,27,24.20
2016,07,08,16,28,22.50
2016,07,08,16,29,22.50
2016,07,08,16,30,19.30
2016,07,08,16,31,19.30
2016,07,08,16,32,17.70
2016,07,08,16,33,25.70
2016,07,08,16,34,25.70
2016,07,08,16,35,24.20
2016,07,08,16,36,24.20
2016,07,08,16,37,25.70
2016,07,08,16,38,25.70
2016,07,08,16,39,33.80
2016,07,08,16,40,29.00
2016,07,08,16,41,24.20
2016,07,08,16,42,25.70
2016,07,08,16,43,29.00
2016,07,08,16,44,27.40
2016,07,08,16,45,17.70
2016,07,08,16,46,24.20
2016,07,08,16,47,25.70
2016,07,08,16,48,25.70
2016,07,08,16,49,27.40
2016,07,08,16,50,22.50
2016,07,08,16,51,24.20
2016,07,08,16,52,24.20
2016,07,08,16,53,24.20
2016,07,08,16,54,24.20
2016,07,08,16,55,25.70
2016,07,08,16,56,35.40
2016,07,08,16,57,30.60
2016,07,08,16,58,22.50
2016,07,08,16,59,25.70
2016,07,08,17,00,24.20
2016,07,08,17,01,20.90
2016,07,08,17,02,17.70
2016,07,08,17,03,25.70
2016,07,08,17,04,22.50
2016,07,08,17,05,16.10
2016,07,08,17,06,17.70
2016,07,08,17,07,24.20
2016,07,08,17,08,24.20
2016,07,08,17,09,20.90
2016,07,08,17,10,20.90
2016,07,08,17,11,20.90
2016,07,08,17,12,20.90
2016,07,08,17,13,20.90
2016,07,08,17,14,16.10
2016,07,08,17,15,25.70
2016,07,08,17,16,17.70
2016,07,08,17,17,16.10
2016,07,08,17,18,22.50
2016,07,08,17,19,25.70
2016,07,08,17,20,24.20
2016,07,08,17,21,24.20
2016,07,08,17,22,25.70
2016,07,08,17,23,24.20
2016,07,08,17,24,19.30
2016,07,08,17,25,20.90
2016,07,08,17,26,25.70
2016,07,08,17,27,24.20
2016,07,08,17,28,24.20
2016,07,08,17,29,20.90
2016,07,08,17,30,16.10
2016,07,08,17,31,20.90
2016,07,08,17,32,17.70
2016,07,08,17,33,17.70
2016,07,08,17,34,16.10
2016,07,08,17,35,17.70
2016,07,08,17,36,24.20
2016,07,08,17,37,20.90
2016,07,08,17,38,17.70
2016,07,08,17,39,25.70
2016,07,08,17,40,27.40
2016,07,08,17,41,20.90
2016,07,08,17,42,22.50
2016,07,08,17,43,20.90
2016,07,08,17,44,22.50
2016,07,08,17,45,17.70
2016,07,08,17,46,17.70
2016,07,08,17,47,19.30
2016,07,08,17,48,20.90
2016,07,08,17,49,24.20
2016,07,08,17,50,24.20
2016,07,08,17,51,27.40
2016,07,08,17,52,20.90
2016,07,08,17,53,22.50
2016,07,08,17,54,12.90
2016,07,08,17,55,17.70
2016,07,08,17,56,17.70
2016,07,08,17,57,14.50
2016,07,08,17,58,24.20
2016,07,08,17,59,24.20
2016,07,08,18,00,19.30
2016,07,08,18,01,19.30
2016,07,08,18,02,22.50
2016,07,08,18,03,20.90
2016,07,08,18,04,12.90
2016,07,08,18,05,14.50
2016,07,08,18,06,14.50
2016,07,08,18,07,12.90
2016,07,08,18,08,17.70
2016,07,08,18,09,12.90
2016,07,08,18,10,12.90
2016,07,08,18,11,12.90
2016,07,08,18,12,16.10
2016,07,08,18,13,16.10
2016,07,08,18,14,11.30
2016,07,08,18,15,12.90
2016,07,08,18,16,11.30
2016,07,08,18,17,12.90
2016,07,08,18,18,12.90
2016,07,08,18,19,8.10
2016,07,08,18,20,11.30
2016,07,08,18,21,14.50
2016,07,08,18,22,12.90
2016,07,08,18,23,16.10
2016,07,08,18,24,14.50
2016,07,08,18,25,14.50
2016,07,08,18,26,16.10
2016,07,08,18,27,16.10
2016,07,08,18,28,11.30
2016,07,08,18,29,11.30
2016,07,08,18,30,9.60
2016,07,08,18,31,8.10
2016,07,08,18,32,12.90
2016,07,08,18,33,11.30
2016,07,08,18,34,11.30
2016,07,08,18,35,11.30
2016,07,08,18,36,16.10
2016,07,08,18,37,17.70
2016,07,08,18,38,14.50
2016,07,08,18,39,14.50
2016,07,08,18,40,16.10
2016,07,08,18,41,16.10
2016,07,08,18,42,14.50
2016,07,08,18,43,11.30
2016,07,08,18,44,12.90
2016,07,08,18,45,9.60
2016,07,08,18,46,11.30
2016,07,08,18,47,12.90
2016,07,08,18,48,14.50
2016,07,08,18,49,11.30
2016,07,08,18,50,14.50
2016,07,08,18,51,12.90
2016,07,08,18,52,14.50
2016,07,08,18,53,12.90
2016,07,08,18,54,9.60
2016,07,08,18,55,11.30
2016,07,08,18,56,12.90
2016,07,08,18,57,12.90
2016,07,08,18,58,12.90
2016,07,08,18,59,11.30
2016,07,08,19,00,12.90
2016,07,08,19,01,12.90
2016,07,08,19,02,11.30
2016,07,08,19,03,9.60
2016,07,08,19,04,11.30
2016,07,08,19,05,9.60
2016,07,08,19,06,8.10
2016,07,08,19,07,8.10
2016,07,08,19,08,9.60
2016,07,08,19,09,9.60
2016,07,08,19,10,8.10
2016,07,08,19,11,4.80
2016,07,08,19,12,4.80
2016,07,08,19,13,4.80
2016,07,08,19,14,4.80
2016,07,08,19,15,4.80
2016,07,08,19,16,4.80
2016,07,08,19,17,4.80
2016,07,08,19,18,4.80
2016,07,08,19,19,4.80
2016,07,08,19,20,4.80
